TimeEST,TemperatureF,Dew PointF,Humidity,Sea Level PressureIn,VisibilityMPH,Wind Direction,Wind SpeedMPH,Gust SpeedMPH,PrecipitationIn,Events,Conditions,WindDirDegrees,DateUTC
12:56 AM,72.0,69.1,91,30.09,10.0,South,10.4,-,N/A,,Partly Cloudy,170,2013-12-22 05:56:00
1:40 AM,71.1,69.1,93,30.09,10.0,South,6.9,-,N/A,,Mostly Cloudy,180,2013-12-22 06:40:00
1:56 AM,72.0,70.0,93,30.09,10.0,South,10.4,-,N/A,,Mostly Cloudy,170,2013-12-22 06:56:00
2:54 AM,69.8,69.8,100,30.09,10.0,South,8.1,-,N/A,,Scattered Clouds,180,2013-12-22 07:54:00
2:56 AM,70.0,69.1,97,30.09,10.0,South,8.1,-,N/A,,Scattered Clouds,180,2013-12-22 07:56:00
3:56 AM,69.1,69.1,100,30.09,10.0,South,8.1,-,N/A,,Partly Cloudy,170,2013-12-22 08:56:00
4:02 AM,69.1,68.0,96,30.09,10.0,South,6.9,-,N/A,,Partly Cloudy,170,2013-12-22 09:02:00
4:56 AM,69.1,69.1,100,30.09,10.0,South,10.4,-,N/A,,Scattered Clouds,170,2013-12-22 09:56:00
5:39 AM,69.1,68.0,96,30.09,10.0,South,8.1,-,N/A,,Mostly Cloudy,180,2013-12-22 10:39:00
5:56 AM,68.0,68.0,100,30.09,10.0,South,6.9,-,N/A,,Mostly Cloudy,170,2013-12-22 10:56:00
6:56 AM,69.1,69.1,100,30.09,10.0,South,10.4,-,N/A,,Mostly Cloudy,170,2013-12-22 11:56:00
7:56 AM,70.0,69.1,97,30.10,9.0,South,11.5,-,N/A,,Mostly Cloudy,180,2013-12-22 12:56:00
8:56 AM,70.0,69.1,97,30.12,10.0,South,12.7,-,N/A,,Mostly Cloudy,190,2013-12-22 13:56:00
9:32 AM,73.0,70.0,90,30.13,10.0,South,11.5,-,N/A,,Mostly Cloudy,180,2013-12-22 14:32:00
9:56 AM,75.0,70.0,84,30.14,10.0,South,12.7,-,N/A,,Mostly Cloudy,180,2013-12-22 14:56:00
10:18 AM,75.9,70.0,82,30.14,10.0,South,13.8,25.3,N/A,,Mostly Cloudy,190,2013-12-22 15:18:00
10:56 AM,78.1,70.0,76,30.13,10.0,South,13.8,-,N/A,,Mostly Cloudy,190,2013-12-22 15:56:00
11:40 AM,79.0,69.1,72,30.12,10.0,SSW,13.8,-,N/A,,Mostly Cloudy,200,2013-12-22 16:40:00
11:56 AM,80.1,70.0,71,30.12,10.0,South,13.8,23.0,N/A,,Mostly Cloudy,190,2013-12-22 16:56:00
12:56 PM,82.0,69.1,65,30.09,10.0,SW,15.0,-,N/A,,Mostly Cloudy,220,2013-12-22 17:56:00
1:56 PM,81.0,66.9,62,30.08,10.0,SW,13.8,21.9,N/A,,Mostly Cloudy,220,2013-12-22 18:56:00
2:56 PM,82.0,68.0,62,30.07,10.0,South,12.7,-,N/A,,Mostly Cloudy,190,2013-12-22 19:56:00
3:56 PM,82.9,66.9,58,30.07,10.0,SSW,5.8,-,N/A,,Mostly Cloudy,210,2013-12-22 20:56:00
4:56 PM,78.1,68.0,71,30.08,10.0,SSE,4.6,-,N/A,,Mostly Cloudy,160,2013-12-22 21:56:00
5:56 PM,73.9,68.0,82,30.08,10.0,SSE,4.6,-,N/A,,Mostly Cloudy,160,2013-12-22 22:56:00
6:56 PM,73.0,68.0,84,30.09,10.0,SE,5.8,-,N/A,,Scattered Clouds,140,2013-12-22 23:56:00
7:56 PM,71.1,68.0,90,30.10,10.0,SE,9.2,-,N/A,,Scattered Clouds,140,2013-12-23 00:56:00
8:56 PM,73.0,68.0,84,30.12,10.0,South,6.9,-,N/A,,Mostly Cloudy,170,2013-12-23 01:56:00
9:56 PM,70.0,66.9,90,30.12,10.0,South,4.6,-,N/A,,Mostly Cloudy,170,2013-12-23 02:56:00
10:56 PM,69.1,66.9,93,30.13,10.0,South,4.6,-,N/A,,Mostly Cloudy,190,2013-12-23 03:56:00
11:56 PM,69.1,66.9,93,30.14,10.0,South,5.8,-,N/A,,Scattered Clouds,180,2013-12-23 04:56:00